Time,TemperatureF,DewpointF,PressureIn,WindDirection,WindDirectionDegrees,WindSpeedMPH,WindSpeedGustMPH,Humidity,HourlyPrecipIn,Conditions,Clouds,dailyrainin,SoftwareType,DateUTC
2013-08-31 00:00:00,83.1,77.7,29.91,East,90,7.0,14.0,84,0.00,RA,,0.00,WeatherDisplay:10.37,2013-08-31 06:00:00,
2013-08-31 00:15:00,83.0,78.4,29.91,East,86,8.0,14.0,86,0.00,CLR,,0.00,WeatherDisplay:10.37,2013-08-31 06:15:00,
2013-08-31 00:31:00,82.9,77.6,29.91,East,87,7.0,14.0,84,0.00,CLR,,0.00,WeatherDisplay:10.37,2013-08-31 06:31:00,
2013-08-31 00:45:00,83.1,78.1,29.91,East,92,10.0,13.0,85,0.00,CLR,,0.00,WeatherDisplay:10.37,2013-08-31 06:45:00,
2013-08-31 01:15:00,83.1,77.4,29.90,ESE,105,6.0,13.0,83,0.00,CLR,,0.00,WeatherDisplay:10.37,2013-08-31 07:15:00,
2013-08-31 01:31:00,83.1,77.8,29.90,East,98,5.0,12.0,84,0.00,CLR,,0.00,WeatherDisplay:10.37,2013-08-31 07:31:00,
2013-08-31 01:45:00,83.2,77.5,29.90,ESE,107,8.0,10.0,83,0.00,CLR,,0.00,WeatherDisplay:10.37,2013-08-31 07:45:00,
2013-08-31 02:00:00,83.0,77.3,29.89,East,101,6.0,10.0,83,0.00,CLR,,0.00,WeatherDisplay:10.37,2013-08-31 08:00:00,
2013-08-31 02:15:00,83.0,77.3,29.88,ESE,103,3.0,9.0,83,0.00,CLR,,0.00,WeatherDisplay:10.37,2013-08-31 08:15:00,
2013-08-31 02:31:00,82.9,76.9,29.88,East,100,8.0,12.0,82,0.00,CLR,,0.00,WeatherDisplay:10.37,2013-08-31 08:31:00,
2013-08-31 02:45:00,83.0,77.3,29.88,East,96,2.0,11.0,83,0.00,CLR,,0.00,WeatherDisplay:10.37,2013-08-31 08:45:00,
2013-08-31 03:00:00,83.0,77.3,29.89,East,92,3.0,12.0,83,0.00,CLR,,0.00,WeatherDisplay:10.37,2013-08-31 09:00:00,
2013-08-31 03:15:00,83.0,77.3,29.89,ESE,105,3.0,10.0,83,0.00,CLR,,0.00,WeatherDisplay:10.37,2013-08-31 09:15:00,
2013-08-31 03:31:00,83.0,77.3,29.88,East,95,3.0,10.0,83,0.00,CLR,,0.00,WeatherDisplay:10.37,2013-08-31 09:31:00,
2013-08-31 03:45:00,83.0,77.3,29.88,East,100,3.0,9.0,83,0.00,CLR,,0.00,WeatherDisplay:10.37,2013-08-31 09:45:00,
2013-08-31 04:00:00,83.0,77.3,29.88,East,97,2.0,10.0,83,0.00,CLR,,0.00,WeatherDisplay:10.37,2013-08-31 10:00:00,
2013-08-31 04:15:00,83.0,77.7,29.88,ESE,109,5.0,12.0,84,0.00,CLR,,0.00,WeatherDisplay:10.37,2013-08-31 10:15:00,
2013-08-31 04:31:00,83.0,78.0,29.88,East,87,2.0,10.0,85,0.00,CLR,,0.00,WeatherDisplay:10.37,2013-08-31 10:31:00,
2013-08-31 04:45:00,82.9,77.9,29.89,East,99,2.0,10.0,85,0.00,CLR,,0.00,WeatherDisplay:10.37,2013-08-31 10:45:00,
2013-08-31 05:00:00,82.7,77.4,29.88,ESE,106,3.0,12.0,84,0.00,CLR,,0.00,WeatherDisplay:10.37,2013-08-31 11:00:00,
2013-08-31 05:15:00,82.1,77.5,29.89,SE,139,9.0,16.0,86,0.00,CLR,,0.00,WeatherDisplay:10.37,2013-08-31 11:15:00,
2013-08-31 05:31:00,81.2,77.0,29.89,SE,130,6.0,12.0,87,0.00,CLR,,0.00,WeatherDisplay:10.37,2013-08-31 11:31:00,
2013-08-31 05:45:00,81.4,76.1,29.89,South,186,5.0,13.0,84,0.00,CLR,,0.00,WeatherDisplay:10.37,2013-08-31 11:45:00,
2013-08-31 06:01:00,79.1,74.9,29.89,WSW,240,5.0,7.0,87,0.00,CLR,,0.00,WeatherDisplay:10.37,2013-08-31 12:01:00,
2013-08-31 06:16:00,78.9,75.3,29.90,West,264,2.0,6.0,89,0.00,CLR,,0.00,WeatherDisplay:10.37,2013-08-31 12:16:00,
2013-08-31 06:31:00,78.3,74.8,29.92,WSW,251,2.0,7.0,89,0.00,CLR,,0.00,WeatherDisplay:10.37,2013-08-31 12:31:00,
2013-08-31 06:46:00,77.3,73.8,29.92,NW,315,3.0,8.0,89,0.02,CLR,,0.02,WeatherDisplay:10.37,2013-08-31 12:46:00,
2013-08-31 07:01:00,77.5,74.6,29.91,NW,318,1.0,5.0,91,0.00,CLR,,0.02,WeatherDisplay:10.37,2013-08-31 13:01:00,
2013-08-31 07:16:00,77.9,75.4,29.91,NW,318,1.0,2.0,92,0.00,CLR,,0.02,WeatherDisplay:10.37,2013-08-31 13:16:00,
2013-08-31 07:31:00,78.4,75.9,29.92,NE,41,0.0,3.0,92,0.00,CLR,,0.02,WeatherDisplay:10.37,2013-08-31 13:31:00,
2013-08-31 07:46:00,78.9,76.4,29.92,NE,41,0.0,3.0,92,0.00,CLR,,0.02,WeatherDisplay:10.37,2013-08-31 13:46:00,